LiveATC.Net - Listen to live air traffic control over the Internet!


ICAO: KRBD  IATA: RBD   Airport: Dallas Executive Airport
City: Dallas   State/Province: Texas
Country: United States   Continent: North America
KRBD METAR Weather: KRBD 211153Z AUTO 31009KT 10SM CLR 11/11 A2992 RMK AO2 SLP128 70003 T01110106 10139 20111 53010
KRBD Flight Activity (FlightAware)
KRBD Airport Info   (AirNav) (iFlightPlanner)
KRBD VFR Sectional Chart   (iFlightPlanner) 
KRBD IFR Low Chart   (iFlightPlanner) 
KRBD Gnd/Twr
Feed Status: DOWN
Last heard on: 2017-02-21 00:44:02 (0 days 11 hours 25 minutes ago)
KRBD Gnd/Twr Audio Archives
FacilityFrequency
Emergency/Guard121.500
Executive Ground119.475
Executive Tower127.250

Sponsored by Angel Flight South Central

NOTICE

Unauthorized use prohibited. See LiveATC.net Terms of Service


Find LiveATC Audio Streams


Airport/ARTCC Code

Frequency Search
(e.g., 124.400, 128.75)
Site-wide search
 


Browse LiveATC Feeds
LiveATC Coverage Map
Top 50 LiveATC Feeds
Bad Weather Areas

LiveATC FAQ
Offer a LiveATC Feed
Contact LiveATC.net
Press Inquiries

LiveATC on iPhone
LiveATC on Android

Windows Phone
Windows 8/10

LiveATC Mobile
(Mobile browser)

ATC Audio Archives
Interesting Recordings

LiveATC Forums


Home Page
About LiveATC.net
Make a Donation
LiveATC Store

Terms of Use
Privacy Policy

Canadian Air Freqs

AIRMETs/SIGMETs

FAA Airport Status
Nat'l Airspace Status
Arrival Demand Charts


Server Software By:
Icecast.org
Liquidsoap